カタログに戻る

STARLINK-31409

運用中通信VLEO
NORAD 59299·PAYLOAD·🇺🇸 United States

打ち上げ Mar 24, 2024 から Cape Canaveral Space Force Station

Loading…

次のパス (今後24時間)

TLE

最新Source: CelesTrak SupGP

元期: Sep 14, 2026, 22:37 UTC

1 59299C 24056D   26257.94284722  .00018590  00000+0  67339-3 0  2571
2 59299  43.0014 235.0111 0001165 251.7559 260.0079 15.27566986    18

AllMySatでSTARLINK-31409をリアルタイム追跡

Download on the App Store